TimeAKST,TemperatureF,Dew PointF,Humidity,Sea Level PressureIn,VisibilityMPH,Wind Direction,Wind SpeedMPH,Gust SpeedMPH,PrecipitationIn,Events,Conditions,WindDirDegrees,DateUTC
12:16 AM,28.4,23.0,80,29.28,3.0,Calm,Calm,-,N/A,,Overcast,0,2012-12-03 09:16:00
12:36 AM,28.4,24.8,86,29.29,5.0,Calm,Calm,-,N/A,,Overcast,0,2012-12-03 09:36:00
12:56 AM,28.4,23.0,80,29.29,10.0,Calm,Calm,-,N/A,,Overcast,0,2012-12-03 09:56:00
1:16 AM,28.4,23.0,80,29.30,5.0,Calm,Calm,-,N/A,,Overcast,0,2012-12-03 10:16:00
1:36 AM,28.4,23.0,80,29.30,5.0,Calm,Calm,-,N/A,,Overcast,0,2012-12-03 10:36:00
1:56 AM,28.4,24.8,86,29.30,3.0,Calm,Calm,-,N/A,,Overcast,0,2012-12-03 10:56:00
2:16 AM,28.4,24.8,86,29.31,9.0,Calm,Calm,-,N/A,,Overcast,0,2012-12-03 11:16:00
2:36 AM,28.4,24.8,86,29.31,9.0,Calm,Calm,-,N/A,,Overcast,0,2012-12-03 11:36:00
2:56 AM,30.2,21.2,69,29.31,10.0,North,-9999.0,-,N/A,,Overcast,0,2012-12-03 11:56:00
3:16 AM,30.2,21.2,69,29.31,10.0,North,-9999.0,-,N/A,,Overcast,0,2012-12-03 12:16:00
3:36 AM,28.4,21.2,74,29.32,10.0,North,-9999.0,-,N/A,,Overcast,0,2012-12-03 12:36:00
3:56 AM,28.4,23.0,80,29.32,10.0,North,-9999.0,-,N/A,,Overcast,0,2012-12-03 12:56:00
4:16 AM,30.2,21.2,69,29.32,10.0,North,-9999.0,-,N/A,,Mostly Cloudy,0,2012-12-03 13:16:00
4:36 AM,30.2,21.2,69,29.32,10.0,North,-9999.0,-,N/A,,Overcast,0,2012-12-03 13:36:00
4:56 AM,30.2,21.2,69,29.33,4.0,North,-9999.0,-,N/A,,Overcast,0,2012-12-03 13:56:00
5:16 AM,28.4,24.8,86,29.34,5.0,North,-9999.0,-,N/A,,Mostly Cloudy,0,2012-12-03 14:16:00
5:36 AM,28.4,24.8,86,29.34,2.5,North,-9999.0,-,N/A,,Overcast,0,2012-12-03 14:36:00
5:56 AM,28.4,24.8,86,29.36,1.5,North,-9999.0,-,N/A,,Overcast,0,2012-12-03 14:56:00
6:16 AM,30.2,24.8,80,29.37,1.5,Calm,Calm,-,N/A,,Overcast,0,2012-12-03 15:16:00
6:36 AM,30.2,24.8,80,29.37,1.5,Calm,Calm,-,N/A,,Overcast,0,2012-12-03 15:36:00
6:56 AM,28.4,24.8,86,29.37,2.0,Calm,Calm,-,N/A,,Overcast,0,2012-12-03 15:56:00
7:16 AM,28.4,24.8,86,29.37,10.0,Calm,Calm,-,N/A,,Overcast,0,2012-12-03 16:16:00
7:36 AM,30.2,26.6,86,29.38,10.0,Calm,Calm,-,N/A,,Overcast,0,2012-12-03 16:36:00
7:56 AM,30.2,26.6,86,29.38,7.0,Calm,Calm,-,N/A,,Overcast,0,2012-12-03 16:56:00
8:16 AM,28.4,26.6,93,29.39,7.0,Calm,Calm,-,N/A,,Overcast,0,2012-12-03 17:16:00
8:36 AM,30.2,24.8,80,29.40,2.5,Calm,Calm,-,N/A,,Overcast,0,2012-12-03 17:36:00
8:56 AM,30.2,24.8,80,29.41,7.0,Calm,Calm,-,N/A,,Mostly Cloudy,0,2012-12-03 17:56:00
9:16 AM,28.4,24.8,86,29.42,7.0,West,4.6,-,N/A,,Mostly Cloudy,280,2012-12-03 18:16:00
9:36 AM,28.4,24.8,86,29.43,10.0,West,5.8,-,N/A,,Mostly Cloudy,280,2012-12-03 18:36:00
9:56 AM,30.2,24.8,80,29.43,10.0,WNW,5.8,-,N/A,,Overcast,290,2012-12-03 18:56:00
10:16 AM,28.4,24.8,86,29.44,10.0,West,6.9,-,N/A,,Overcast,270,2012-12-03 19:16:00
10:36 AM,30.2,24.8,80,29.45,10.0,West,5.8,-,N/A,,Overcast,280,2012-12-03 19:36:00
10:56 AM,30.2,24.8,80,29.45,10.0,NW,4.6,-,N/A,,Overcast,310,2012-12-03 19:56:00
11:16 AM,30.2,24.8,80,29.46,10.0,Calm,Calm,-,N/A,,Overcast,0,2012-12-03 20:16:00
11:36 AM,30.2,24.8,80,29.46,10.0,Calm,Calm,-,N/A,,Overcast,0,2012-12-03 20:36:00
11:56 AM,28.4,24.8,86,29.47,10.0,WNW,3.5,-,N/A,,Overcast,300,2012-12-03 20:56:00
12:16 PM,28.4,24.8,86,29.47,10.0,Calm,Calm,-,N/A,,Overcast,0,2012-12-03 21:16:00
12:36 PM,30.2,24.8,80,29.46,10.0,West,3.5,-,N/A,,Overcast,280,2012-12-03 21:36:00
12:56 PM,32.0,24.8,75,29.47,5.0,Calm,Calm,-,N/A,,Overcast,0,2012-12-03 21:56:00
1:16 PM,30.2,26.6,86,29.46,5.0,Calm,Calm,-,N/A,,Overcast,0,2012-12-03 22:16:00
1:36 PM,30.2,26.6,86,29.46,10.0,WNW,3.5,-,N/A,,Overcast,290,2012-12-03 22:36:00
1:56 PM,30.2,26.6,86,29.46,10.0,SW,3.5,-,N/A,,Overcast,230,2012-12-03 22:56:00
2:16 PM,30.2,26.6,86,29.46,10.0,SW,3.5,-,N/A,,Overcast,230,2012-12-03 23:16:00
2:36 PM,30.2,26.6,86,29.45,10.0,West,3.5,-,N/A,,Overcast,280,2012-12-03 23:36:00
2:56 PM,30.2,26.6,86,29.45,10.0,WNW,6.9,-,N/A,,Overcast,290,2012-12-03 23:56:00
3:16 PM,30.2,24.8,80,29.45,10.0,NW,3.5,-,N/A,,Overcast,310,2012-12-04 00:16:00
3:36 PM,30.2,26.6,86,29.44,10.0,Calm,Calm,-,N/A,,Overcast,0,2012-12-04 00:36:00
3:56 PM,30.2,24.8,80,29.43,10.0,NNW,3.5,-,N/A,,Overcast,340,2012-12-04 00:56:00
4:16 PM,28.4,26.6,93,29.42,10.0,WSW,4.6,-,N/A,,Overcast,240,2012-12-04 01:16:00
4:36 PM,28.4,24.8,86,29.42,10.0,SW,5.8,-,N/A,,Overcast,220,2012-12-04 01:36:00
4:56 PM,30.2,24.8,80,29.41,-9999.0,SSW,5.8,-,N/A,,Overcast,210,2012-12-04 01:56:00
5:16 PM,28.4,24.8,86,29.40,10.0,SW,4.6,-,N/A,,Overcast,230,2012-12-04 02:16:00
5:36 PM,28.4,24.8,86,29.38,10.0,SW,5.8,-,N/A,,Overcast,230,2012-12-04 02:36:00
5:56 PM,30.2,24.8,80,29.37,10.0,SW,3.5,-,N/A,,Overcast,220,2012-12-04 02:56:00
6:16 PM,28.4,24.8,86,29.35,10.0,WSW,5.8,-,N/A,,Overcast,250,2012-12-04 03:16:00
6:36 PM,28.4,24.8,86,29.34,10.0,WSW,4.6,-,N/A,,Overcast,240,2012-12-04 03:36:00
6:56 PM,30.2,24.8,80,29.33,10.0,WSW,3.5,-,N/A,,Overcast,240,2012-12-04 03:56:00
7:16 PM,30.2,24.8,80,29.33,10.0,SW,6.9,-,N/A,,Overcast,230,2012-12-04 04:16:00
7:36 PM,30.2,24.8,80,29.33,10.0,SW,4.6,-,N/A,,Overcast,230,2012-12-04 04:36:00
7:56 PM,30.2,26.6,86,29.33,4.0,West,3.5,-,N/A,,Overcast,280,2012-12-04 04:56:00
8:16 PM,28.4,26.6,93,29.31,4.0,Calm,Calm,-,N/A,,Overcast,0,2012-12-04 05:16:00
8:36 PM,30.2,26.6,86,29.30,4.0,ESE,3.5,-,N/A,,Overcast,120,2012-12-04 05:36:00
8:56 PM,30.2,26.6,86,29.30,7.0,South,3.5,-,N/A,,Overcast,190,2012-12-04 05:56:00
9:16 PM,30.2,26.6,86,29.29,7.0,SW,3.5,-,N/A,,Overcast,220,2012-12-04 06:16:00
9:36 PM,30.2,26.6,86,29.28,7.0,Calm,Calm,-,N/A,,Overcast,0,2012-12-04 06:36:00
9:56 PM,30.2,26.6,86,29.27,10.0,Calm,Calm,-,N/A,,Overcast,0,2012-12-04 06:56:00
10:16 PM,30.2,26.6,86,29.26,10.0,West,3.5,-,N/A,,Overcast,260,2012-12-04 07:16:00
10:36 PM,30.2,26.6,86,29.26,9.0,SSW,4.6,-,N/A,,Overcast,200,2012-12-04 07:36:00
10:56 PM,30.2,26.6,86,29.25,10.0,SSW,3.5,-,N/A,,Overcast,210,2012-12-04 07:56:00
11:16 PM,32.0,26.6,80,29.24,10.0,West,4.6,-,N/A,,Overcast,280,2012-12-04 08:16:00
11:36 PM,30.2,26.6,86,29.24,10.0,SW,5.8,-,N/A,,Overcast,230,2012-12-04 08:36:00
11:56 PM,30.2,26.6,86,29.23,10.0,SW,4.6,-,N/A,,Overcast,220,2012-12-04 08:56:00